This is the latest recevied weather packets stored in our database for station/object K1WJY. If no packets are shown the sender has not sent any weather packets the latest 10 day(s).
| Time | Temp. | Humidity | Pressure | Rain* | Wind** | Luminosity | Snow |
|---|---|---|---|---|---|---|---|
| 1777719398 | 2.22° C | 99% | 1015.9 hPa | 0 mm | - | 56 W/m² | - |
| 1777719095 | 2.22° C | 99% | 1015.6 hPa | 0 mm | - | 51 W/m² | - |
| 1777718792 | 1.67° C | 99% | 1015.7 hPa | 0 mm | - | 43 W/m² | - |
| 1777718489 | 1.67° C | 99% | 1015.6 hPa | 0 mm | - | 44 W/m² | - |
| 1777718187 | 1.11° C | 99% | 1016 hPa | 0 mm | - | 58 W/m² | - |
| 1777717885 | 0.56° C | 99% | 1016 hPa | 0 mm | - | 30 W/m² | - |
| 1777717581 | 0.56° C | 99% | 1016 hPa | 0 mm | - | 39 W/m² | - |
| 1777717278 | 0.56° C | 99% | 1015.9 hPa | 0 mm | - | 39 W/m² | - |
| 1777716976 | 0° C | 99% | 1016.1 hPa | 0 mm | - | 24 W/m² | - |
| 1777716674 | 0° C | 99% | 1016.1 hPa | 0 mm | - | 21 W/m² | - |
| 1777716373 | 0° C | 99% | 1016.1 hPa | 0 mm | - | 19 W/m² | - |
| 1777716070 | -0.56° C | 99% | 1016 hPa | 0 mm | - | 15 W/m² | - |
| 1777715768 | -0.56° C | 99% | 1016.1 hPa | 0 mm | - | 14 W/m² | - |
| 1777715465 | -0.56° C | 99% | 1016.2 hPa | 0 mm | - | 12 W/m² | - |
| 1777715162 | -0.56° C | 99% | 1016.1 hPa | 0 mm | - | 10 W/m² | - |
| 1777714861 | -1.11° C | 99% | 1016.2 hPa | 0 mm | - | 7 W/m² | - |
| 1777714559 | -1.11° C | 99% | 1016.1 hPa | 0 mm | - | 3 W/m² | - |
| 1777714256 | -1.11° C | 99% | 1016 hPa | 0 mm | - | 3 W/m² | - |
| 1777713953 | -1.11° C | 99% | 1015.8 hPa | 0 mm | - | 1 W/m² | - |
| 1777713651 | -1.11° C | 99% | 1015.9 hPa | 0 mm | - | 1 W/m² | - |
| 1777713347 | -1.11° C | 99% | 1015.7 hPa | 0 mm | - | 0 W/m² | - |
| 1777713044 | -1.67° C | 99% | 1015.8 hPa | 0 mm | - | 0 W/m² | - |
| 1777712741 | -1.67° C | 99% | 1016 hPa | 0 mm | - | 0 W/m² | - |
| 1777712438 | -1.67° C | 99% | 1016 hPa | 0 mm | - | 0 W/m² | - |
| 1777712134 | -1.67° C | 99% | 1015.8 hPa | 0 mm | - | 0 W/m² | - |
* Rain latest hour (hover to see other rain measurements)
** Current wind speed in m/s (hover to see current wind gust speed)